Regional Weather Roundup
Issued by NWS Goodland, KS

Home | Current Version | Previous Version | Text Only | Print | Product List | Glossary On
Versions: 1 2 3 4 5 6 7 8 9 10 11 12 13 14 15 16 17 18 19 20 21 22 23 24 25 26 27 28 29 30 31 32 33 34 35 36 37 38 39 40 41 42 43 44 45 46 47 48 49 50
000
ASUS43 KGLD 220908
RWRGLD

GOODLAND FORECAST AREA HOURLY WEATHER ROUNDUP
NATIONAL WEATHER SERVICE GOODLAND KS
300 AM MDT SAT JUL 22 2017

...OFFICIAL OBSERVATIONS...

CITY           SKY/WX    TMP DP  RH WIND       PRES   REMARKS
GOODLAND KS    PTCLDY    70  56  61 NW10      29.98F
HILL CITY KS   CLEAR     76  59  55 W5        29.85S
IMPERIAL NEB   MOCLDY    68  61  78 N10       29.94F
MCCOOK NEB     MOCLDY    78  57  48 N16       29.88S
AKRON CO       PTCLDY    64  60  87 NW9       30.07F
BURLINGTON CO  CLOUDY    68  57  68 NW13      30.04F
LIMON CO       CLOUDY    65  57  75 N5        30.12S
$$

...UNOFFICIAL OBSERVATIONS...

CITY           SKY/WX    TMP DP  RH WIND       PRES   REMARKS
LENORA KS        N/A     73  32  22 MISG        N/A
NORTON KS      CLEAR     75  50  41 N9        29.85F
SHARON SPRINGS   N/A     71  58  64 NW7G17      N/A
TRIBUNE KS     PTCLDY    72  59  64 NW9       30.03F
TRENTON NEB      N/A     72  32  23 NW9         N/A
KIT CARSON CO    N/A     66  57  73 MISG        N/A
YUMA CO        FAIR      63  52  67 W9        30.04F
$$



USA.gov is the U.S. government's official web portal to all federal, state and local government web resources and services.